[ hide orbit diagram ]
For accurate long-term ephemerides, please instead use our Horizons system.This orbit viewer was implemented using two-body methods, and hence should not be used for determining accurate long-term trajectories (over several years or decades) or planetary encounter circumstances.
Orbital Elements at Epoch 2459200.5 (2020-Dec-17.0) TDB
Reference: JPL 22 (heliocentric ecliptic J2000)
Element | Value | Uncertainty (1-sigma) | Units |
e | .08212137124166412 | 3.1909e-08 | |
a | 2.6276351233279 | 1.1592e-08 | au |
q | 2.411850123877453 | 8.5516e-08 | au |
i | 1.496824370533383 | 3.8468e-06 | deg |
node | 301.2996634103812 | 0.00014888 | deg |
peri | 344.6983080961241 | 0.00015251 | deg |
M | 50.69123611009036 | 3.0293e-05 | deg |
tp | 2458981.433285249175 (2020-May-11.93328525) | 0.00013157 | TDB |
period | 1555.772227353491 4.26 | 1.0295e-05 2.819e-08 | d yr |
n | .2313963404607065 | 1.5313e-09 | deg/d |
Q | 2.843420122778346 | 1.2544e-08 | au |
|
| | Orbit Determination Parameters
Additional Information
|
[ show covariance matrix ]
Physical Parameter Table
Parameter |
Symbol |
Value |
Units |
Sigma |
Reference |
Notes |
absolute magnitude |
H |
14.72 |
|
n/a |
E2021B10 |
|
diameter |
diameter |
5.679 |
km |
0.196 |
urn:nasa:pds:neowise_diameters_albedos::2.0[mainbelt] (http://adsabs.harvard.edu/abs/2011ApJ...741...68M) |
|
geometric albedo |
albedo |
0.095 |
|
0.014 |
urn:nasa:pds:neowise_diameters_albedos::2.0[mainbelt] (http://adsabs.harvard.edu/abs/2011ApJ...741...68M) |
|
|
11984 Manet | Discovered 1995 Oct. 20 by E. W. Elst at Caussols. |
French painter Edouard Manet (1832-1883) was a pivotal figure in the transition of realism to impressionism. He is well known for his The Luncheon in the Grass (1863), Olympia (1863) and Folies-Bergère (1882). |
NOTE: some special characters may not display properly (any characters within {} are an attempt to place the proper accent above a character) |
Reference: 20090806/MPCPages.arc | Last Updated: 2011-05-09 |
|
[ show close-approach data ]
Alternate Designations
1995 UK45 = 1996 YQ = 1998 HF80 = 1999 RF164 |
|
|